Regional Weather Roundup
Issued by NWS

Home | Current Version | Previous Version | Graphics & Text | Print | Product List | Glossary On
Versions: 1 2 3 4 5 6 7 8 9 10 11 12 13 14 15 16 17 18 19 20 21 22 23 24 25 26 27 28 29 30 31 32 33 34 35 36 37 38 39 40 41 42 43 44 45 46 47 48 49 50
000
ASUS43 KIND 300909
RWRIN

WEATHER ROUNDUP FOR INDIANA
NATIONAL WEATHER SERVICE INDIANAPOLIS IN
400 AM EST FRI JAN 30 2015

NOTE: "FAIR" INDICATES FEW OR NO CLOUDS BELOW 12,000 FEET WITH NO
SIGNIFICANT WEATHER AND/OR OBSTRUCTIONS TO VISIBILITY.

* - STATION DOES NOT REPORT WEATHER SUCH AS PRECIPITATION OR FOG.

+ - STATION NOT QUALITY CONTROLLED BY THE NATIONAL WEATHER SERVICE.
    USE DATA WITH CAUTION...ESPECIALLY DEWPOINT AND RELATIVE
    HUMIDITY OBSERVATIONS.

INZ001>003-010>013-019-020-301000-
NORTHWEST INDIANA

CITY           SKY/WX    TMP DP  RH WIND       PRES   REMARKS
GARY /AIRPORT/ CLOUDY    29   9  43 N21G29    30.39R WCI  16
KNOX *+        CLOUDY    28   3  34 N23       30.33R WCI  14
LA PORTE +     CLOUDY    28  18  66 N18G29    30.33R WCI  15
MICHIGAN CITY+ MOCLDY    27  18  69 N14G22    30.35R WCI  15
MONTICELLO +   CLOUDY    29  24  82 N13       30.32R WCI  19
RENSSELAER +   CLOUDY    30  25  80 N16G22    30.36R WCI  19
VALPARAISO     CLOUDY    27  14  58 NW17G26   30.34R WCI  14

$$

LMZ046-743>745-301000-
SOUTHERN LAKE MICHIGAN

STATION/POSITION TIME  TEMP WIND        PRES
                       AIR  DIR/SP/G
                 (UTC) (F)  (DEG/KT/KT) (MB)
MICHIGAN CITY    0900   28  330/ 30/ 34   N/A

$$

INZ004-005-014>016-021>024-301000-
NORTH CENTRAL INDIANA

CITY           SKY/WX    TMP DP  RH WIND       PRES   REMARKS
GOSHEN         FLURRIES  24  17  74 N13       30.30R WCI  12
LOGANSPORT +   CLOUDY    28  23  80 N15G23    30.32R WCI  17
PERU/GRISSOM   CLOUDY    28  19  70 N18G24    30.29R WCI  15
ROCHESTER +    CLOUDY    30  23  74 N10       30.31R WCI  21
SOUTH BEND     CLOUDY    26  15  63 N22G30    30.32R WCI  12
WARSAW +       PTCLDY    25  18  74 N12       30.29R WCI  14

$$

INZ006>009-017-018-025>027-301000-
NORTHEAST INDIANA

CITY           SKY/WX    TMP DP  RH WIND       PRES   REMARKS
ANGOLA *+      CLEAR     19  10  68 N13       30.24R WCI   7
AUBURN +       CLEAR     23  12  63 N15G24    30.27R WCI  10
FORT WAYNE     PTCLDY    25  14  63 NW15G28   30.27R WCI  13
HUNTINGTON +   CLOUDY    27  13  57 N10G20    30.28R WCI  17

$$

INZ028-029-035-036-043>045-051>053-301000-
WEST CENTRAL INDIANA

CITY           SKY/WX    TMP DP  RH WIND       PRES   REMARKS
CRAWFORDSVL +  CLOUDY    30  20  65 NW15G21   30.32R WCI  19
GREENCASTLE +  CLOUDY    32  23  69 NW8       30.31S WCI  25
LAFAYETTE      FLURRIES  30  25  81 N9        30.34R WCI  22
TERRE HAUTE    CLOUDY    33  26  75 NW14      30.35R WCI  23

$$

INZ030>032-037>040-046>048-054>057-064-065-301000-
CENTRAL INDIANA

CITY           SKY/WX    TMP DP  RH WIND       PRES   REMARKS
CP ATTERBURY + CLOUDY    34  23  64 NW13G18   30.30R WCI  25
INDIANAPOLIS   FLURRIES  30  23  75 NW13      30.29R WCI  20
-EAGLE CREEK   CLOUDY    32  23  69 NW12      30.28R WCI  23
KOKOMO *+      CLOUDY    28  19  69 N20G26    30.29R WCI  15
MARION +       FLURRIES  28  22  76 N16G23    30.29R WCI  16
MT COMFORT *+  MOCLDY    32  18  55 NW21G26   30.28R WCI  20
SHELBYVILLE    CLOUDY    34  22  61 NW16G24   30.27R WCI  24
ZIONSVILLE +   FLURRIES  31  25  77 N16       30.29R WCI  20

$$

INZ033-034-041-042-049-050-058-059-301000-
EAST CENTRAL INDIANA

CITY           SKY/WX    TMP DP  RH WIND       PRES   REMARKS
MUNCIE         CLOUDY    30  23  75 N21       30.26R WCI  17

$$

INZ060-061-067>069-081>083-085>088-301000-
SOUTHWEST INDIANA

CITY           SKY/WX    TMP DP  RH WIND       PRES   REMARKS
EVANSVILLE     CLOUDY    36  24  62 NW12G18   30.40R
HUNTINGBURG *+ CLOUDY    36  25  64 NW13G18   30.37R
WASHINGTON +   CLOUDY    33  25  72 NW12G17   30.36S WCI  25

$$

INZ062-063-066-070>080-084-089>092-301000-
SOUTH CENTRAL AND SOUTHEAST INDIANA

CITY           SKY/WX    TMP DP  RH WIND       PRES   REMARKS
BLOOMINGTON    CLOUDY    33  26  75 W8        30.31R WCI  26
NORTH VERNON + CLOUDY    34  27  75 NW8G21    30.29R WCI  27
SEYMOUR +      CLOUDY    36  23  60 NW13G22   30.31R

$$




USA.gov is the U.S. government's official web portal to all federal, state and local government web resources and services.